Time,TemperatureF,DewpointF,PressureIn,WindDirection,WindDirectionDegrees,WindSpeedMPH,WindSpeedGustMPH,Humidity,HourlyPrecipIn,Conditions,Clouds,dailyrainin,SoftwareType,DateUTC
2013-08-12 00:07:00,72.9,69.8,29.87,West,270,0.0,-999.0,90,-99.99,,,0.00,Acu-Link.com,2013-08-12 04:07:00,
2013-08-12 00:22:00,72.5,69.7,29.87,West,270,0.0,-999.0,91,-99.99,,,0.00,Acu-Link.com,2013-08-12 04:22:00,
2013-08-12 00:38:00,72.1,69.6,29.87,West,270,0.0,-999.0,92,-99.99,,,0.00,Acu-Link.com,2013-08-12 04:38:00,
2013-08-12 00:53:00,71.8,69.7,29.86,WSW,247,0.0,-999.0,93,-99.99,,,0.00,Acu-Link.com,2013-08-12 04:53:00,
2013-08-12 01:08:00,71.4,69.6,29.87,NE,45,0.0,-999.0,94,-99.99,,,0.00,Acu-Link.com,2013-08-12 05:08:00,
2013-08-12 01:24:00,70.9,69.1,29.86,NE,45,0.0,-999.0,94,-99.99,,,0.00,Acu-Link.com,2013-08-12 05:24:00,
2013-08-12 01:39:00,70.5,69.3,29.86,NE,45,0.0,-999.0,96,-99.99,,,0.00,Acu-Link.com,2013-08-12 05:39:00,
2013-08-12 01:54:00,70.3,69.1,29.87,SW,225,0.0,-999.0,96,-99.99,,,0.00,Acu-Link.com,2013-08-12 05:54:00,
2013-08-12 02:10:00,70.2,69.0,29.87,SW,225,0.0,-999.0,96,-99.99,,,0.00,Acu-Link.com,2013-08-12 06:10:00,
2013-08-12 02:25:00,70.0,69.1,29.86,SW,225,0.0,-999.0,97,-99.99,,,0.00,Acu-Link.com,2013-08-12 06:25:00,
2013-08-12 02:40:00,69.6,68.7,29.86,WSW,247,0.0,-999.0,97,-99.99,,,0.00,Acu-Link.com,2013-08-12 06:40:00,
2013-08-12 02:55:00,69.6,69.0,29.86,SW,225,0.0,-999.0,98,-99.99,,,0.00,Acu-Link.com,2013-08-12 06:55:00,
2013-08-12 03:11:00,69.6,69.0,29.86,SW,225,0.0,-999.0,98,-99.99,,,0.00,Acu-Link.com,2013-08-12 07:11:00,
2013-08-12 03:26:00,69.4,68.8,29.86,SW,225,0.0,-999.0,98,-99.99,,,0.00,Acu-Link.com,2013-08-12 07:26:00,
2013-08-12 03:41:00,69.3,69.0,29.86,South,180,0.0,-999.0,99,-99.99,,,0.00,Acu-Link.com,2013-08-12 07:41:00,
2013-08-12 03:57:00,69.3,69.0,29.85,SSW,202,0.0,-999.0,99,-99.99,,,0.00,Acu-Link.com,2013-08-12 07:57:00,
2013-08-12 04:13:00,68.9,68.6,29.85,SSW,202,0.0,-999.0,99,-99.99,,,0.00,Acu-Link.com,2013-08-12 08:13:00,
2013-08-12 04:28:00,68.7,68.4,29.86,East,90,0.0,-999.0,99,-99.99,,,0.00,Acu-Link.com,2013-08-12 08:28:00,
2013-08-12 04:43:00,68.4,68.1,29.86,East,90,0.0,-999.0,99,-99.99,,,0.00,Acu-Link.com,2013-08-12 08:43:00,
2013-08-12 04:59:00,68.4,68.1,29.86,SSW,202,0.0,-999.0,99,-99.99,,,0.00,Acu-Link.com,2013-08-12 08:59:00,
2013-08-12 05:14:00,68.2,67.9,29.86,SSW,202,0.0,-999.0,99,-99.99,,,0.00,Acu-Link.com,2013-08-12 09:14:00,
2013-08-12 05:29:00,68.0,67.7,29.86,SSE,157,0.0,-999.0,99,-99.99,,,0.00,Acu-Link.com,2013-08-12 09:29:00,
2013-08-12 05:44:00,67.8,67.5,29.85,ESE,112,0.0,-999.0,99,-99.99,,,0.00,Acu-Link.com,2013-08-12 09:44:00,
2013-08-12 05:59:00,67.3,67.0,29.85,East,90,0.0,-999.0,99,-99.99,,,0.00,Acu-Link.com,2013-08-12 09:59:00,
2013-08-12 06:14:00,66.9,66.6,29.85,SSE,157,0.0,-999.0,99,-99.99,,,0.00,Acu-Link.com,2013-08-12 10:14:00,
2013-08-12 06:30:00,66.7,66.4,29.85,SSE,157,0.0,-999.0,99,-99.99,,,0.00,Acu-Link.com,2013-08-12 10:30:00,
2013-08-12 06:45:00,66.7,66.4,29.85,SSW,202,0.0,-999.0,99,-99.99,,,0.00,Acu-Link.com,2013-08-12 10:45:00,
2013-08-12 07:00:00,67.1,66.8,29.85,SSW,202,0.0,-999.0,99,-99.99,,,0.00,Acu-Link.com,2013-08-12 11:00:00,
2013-08-12 07:15:00,67.8,67.5,29.85,South,180,0.0,-999.0,99,-99.99,,,0.00,Acu-Link.com,2013-08-12 11:15:00,
2013-08-12 07:31:00,68.7,68.4,29.84,SSW,202,0.0,-999.0,99,-99.99,,,0.00,Acu-Link.com,2013-08-12 11:31:00,
2013-08-12 07:46:00,70.5,68.7,29.85,SSW,202,1.7,-999.0,94,-99.99,,,0.00,Acu-Link.com,2013-08-12 11:46:00,
2013-08-12 08:01:00,70.9,68.5,29.85,SSE,157,1.7,-999.0,92,-99.99,,,0.00,Acu-Link.com,2013-08-12 12:01:00,
2013-08-12 08:16:00,71.4,68.9,29.84,South,180,2.2,-999.0,92,-99.99,,,0.00,Acu-Link.com,2013-08-12 12:16:00,
2013-08-12 08:32:00,71.8,69.3,29.85,SSE,157,1.7,-999.0,92,-99.99,,,0.00,Acu-Link.com,2013-08-12 12:32:00,
2013-08-12 08:47:00,72.5,69.7,29.84,SSE,157,0.0,-999.0,91,-99.99,,,0.00,Acu-Link.com,2013-08-12 12:47:00,
2013-08-12 09:02:00,73.9,70.8,29.84,South,180,2.2,-999.0,90,-99.99,,,0.00,Acu-Link.com,2013-08-12 13:02:00,
2013-08-12 09:18:00,75.0,71.5,29.84,SSW,202,3.7,-999.0,89,-99.99,,,0.00,Acu-Link.com,2013-08-12 13:18:00,
2013-08-12 09:33:00,76.1,70.9,29.85,SSE,157,3.7,-999.0,84,-99.99,,,0.00,Acu-Link.com,2013-08-12 13:33:00,
2013-08-12 09:48:00,76.8,71.9,29.84,SSE,157,4.2,-999.0,85,-99.99,,,0.00,Acu-Link.com,2013-08-12 13:48:00,
2013-08-12 10:03:00,77.7,72.5,29.84,SSE,157,4.7,-999.0,84,-99.99,,,0.00,Acu-Link.com,2013-08-12 14:03:00,
2013-08-12 10:18:00,78.6,73.0,29.84,SSE,157,4.2,-999.0,83,-99.99,,,0.00,Acu-Link.com,2013-08-12 14:18:00,
2013-08-12 10:33:00,78.4,72.1,29.84,SSW,202,4.7,-999.0,81,-99.99,,,0.00,Acu-Link.com,2013-08-12 14:33:00,
2013-08-12 10:48:00,78.4,72.4,29.84,South,180,4.7,-999.0,82,-99.99,,,0.00,Acu-Link.com,2013-08-12 14:48:00,
2013-08-12 11:04:00,78.4,72.4,29.84,SSE,157,3.7,-999.0,82,-99.99,,,0.00,Acu-Link.com,2013-08-12 15:04:00,
2013-08-12 11:19:00,78.6,73.0,29.85,SSE,157,4.2,-999.0,83,-99.99,,,0.00,Acu-Link.com,2013-08-12 15:19:00,
2013-08-12 11:34:00,78.4,73.2,29.85,WSW,247,4.2,-999.0,84,-99.99,,,0.00,Acu-Link.com,2013-08-12 15:34:00,
2013-08-12 11:49:00,78.3,72.7,29.84,WSW,247,3.7,-999.0,83,-99.99,,,0.00,Acu-Link.com,2013-08-12 15:49:00,
2013-08-12 12:04:00,79.9,73.2,29.82,South,180,4.2,-999.0,80,-99.99,,,0.00,Acu-Link.com,2013-08-12 16:04:00,
2013-08-12 12:19:00,80.4,74.0,29.82,South,180,7.3,-999.0,81,-99.99,,,0.00,Acu-Link.com,2013-08-12 16:19:00,
2013-08-12 12:34:00,79.3,73.7,29.83,SE,135,3.7,-999.0,83,-99.99,,,0.00,Acu-Link.com,2013-08-12 16:34:00,
2013-08-12 12:50:00,78.1,73.2,29.83,South,180,4.2,-999.0,85,-99.99,,,0.00,Acu-Link.com,2013-08-12 16:50:00,
2013-08-12 13:05:00,77.0,73.2,29.82,South,180,4.2,-999.0,88,-99.99,,,0.00,Acu-Link.com,2013-08-12 17:05:00,
2013-08-12 13:20:00,76.5,73.7,29.82,SSE,157,3.2,-999.0,91,-99.99,,,0.00,Acu-Link.com,2013-08-12 17:20:00,
2013-08-12 13:35:00,75.4,73.9,29.82,SSW,202,1.7,-999.0,95,-99.99,,,0.02,Acu-Link.com,2013-08-12 17:35:00,
2013-08-12 13:50:00,75.2,74.3,29.82,South,180,2.2,-999.0,97,-99.99,,,0.03,Acu-Link.com,2013-08-12 17:50:00,
2013-08-12 14:06:00,74.3,74.0,29.82,ESE,112,3.2,-999.0,99,-99.99,,,0.06,Acu-Link.com,2013-08-12 18:06:00,
2013-08-12 14:21:00,72.7,72.1,29.82,SW,225,2.7,-999.0,98,-99.99,,,0.24,Acu-Link.com,2013-08-12 18:21:00,
2013-08-12 14:36:00,74.3,74.0,29.80,WSW,247,1.1,-999.0,99,-99.99,,,0.25,Acu-Link.com,2013-08-12 18:36:00,
2013-08-12 14:51:00,74.5,73.3,29.81,WSW,247,1.7,-999.0,96,-99.99,,,0.25,Acu-Link.com,2013-08-12 18:51:00,
2013-08-12 15:07:00,77.4,74.6,29.80,SSE,157,3.2,-999.0,91,-99.99,,,0.25,Acu-Link.com,2013-08-12 19:07:00,
2013-08-12 15:22:00,79.3,75.8,29.78,West,270,0.0,-999.0,89,-99.99,,,0.25,Acu-Link.com,2013-08-12 19:22:00,
2013-08-12 15:37:00,78.1,73.6,29.78,WSW,247,1.1,-999.0,86,-99.99,,,0.25,Acu-Link.com,2013-08-12 19:37:00,
2013-08-12 15:52:00,80.6,74.2,29.76,South,180,3.7,-999.0,81,-99.99,,,0.25,Acu-Link.com,2013-08-12 19:52:00,
2013-08-12 16:08:00,81.0,75.7,29.75,South,180,2.2,-999.0,84,-99.99,,,0.25,Acu-Link.com,2013-08-12 20:08:00,
2013-08-12 16:23:00,80.2,74.6,29.75,South,180,4.2,-999.0,83,-99.99,,,0.25,Acu-Link.com,2013-08-12 20:23:00,
2013-08-12 16:38:00,80.4,74.4,29.75,SE,135,4.7,-999.0,82,-99.99,,,0.25,Acu-Link.com,2013-08-12 20:38:00,
2013-08-12 16:53:00,80.4,74.0,29.74,SSE,157,3.2,-999.0,81,-99.99,,,0.25,Acu-Link.com,2013-08-12 20:53:00,
2013-08-12 17:08:00,80.6,74.6,29.74,South,180,4.2,-999.0,82,-99.99,,,0.25,Acu-Link.com,2013-08-12 21:08:00,
2013-08-12 17:23:00,79.3,74.4,29.74,SSE,157,4.2,-999.0,85,-99.99,,,0.25,Acu-Link.com,2013-08-12 21:23:00,
2013-08-12 17:39:00,79.9,75.0,29.73,SSW,202,2.2,-999.0,85,-99.99,,,0.25,Acu-Link.com,2013-08-12 21:39:00,
2013-08-12 17:54:00,79.2,74.6,29.72,SSE,157,7.8,-999.0,86,-99.99,,,0.25,Acu-Link.com,2013-08-12 21:54:00,
2013-08-12 18:09:00,79.0,74.4,29.72,South,180,5.3,-999.0,86,-99.99,,,0.25,Acu-Link.com,2013-08-12 22:09:00,
2013-08-12 18:25:00,78.8,74.2,29.72,South,180,2.2,-999.0,86,-99.99,,,0.25,Acu-Link.com,2013-08-12 22:25:00,
2013-08-12 18:40:00,78.6,74.0,29.73,SSE,157,2.7,-999.0,86,-99.99,,,0.25,Acu-Link.com,2013-08-12 22:40:00,
2013-08-12 18:55:00,77.9,74.4,29.71,NNE,22,1.1,-999.0,89,-99.99,,,0.25,Acu-Link.com,2013-08-12 22:55:00,
2013-08-12 19:10:00,77.5,74.0,29.72,South,180,2.7,-999.0,89,-99.99,,,0.25,Acu-Link.com,2013-08-12 23:10:00,
2013-08-12 19:26:00,77.4,74.2,29.72,SW,225,1.7,-999.0,90,-99.99,,,0.26,Acu-Link.com,2013-08-12 23:26:00,
2013-08-12 19:41:00,75.2,74.3,29.74,West,270,3.2,-999.0,97,-99.99,,,0.29,Acu-Link.com,2013-08-12 23:41:00,
2013-08-12 19:56:00,70.0,68.5,29.75,SW,225,5.8,-999.0,95,-99.99,,,0.64,Acu-Link.com,2013-08-12 23:56:00,
2013-08-12 20:11:00,68.5,68.2,29.70,SSW,202,0.0,-999.0,99,-99.99,,,1.26,Acu-Link.com,2013-08-13 00:11:00,
2013-08-12 20:27:00,68.2,67.9,29.70,West,270,0.0,-999.0,99,-99.99,,,1.27,Acu-Link.com,2013-08-13 00:27:00,
2013-08-12 20:42:00,68.2,67.9,29.70,SW,225,0.0,-999.0,99,-99.99,,,1.27,Acu-Link.com,2013-08-13 00:42:00,
2013-08-12 20:57:00,68.4,68.1,29.70,SSE,157,0.0,-999.0,99,-99.99,,,1.27,Acu-Link.com,2013-08-13 00:57:00,
2013-08-12 21:13:00,68.9,68.6,29.70,SE,135,2.2,-999.0,99,-99.99,,,1.27,Acu-Link.com,2013-08-13 01:13:00,
2013-08-12 21:28:00,69.8,69.5,29.70,SSE,157,2.7,-999.0,99,-99.99,,,1.27,Acu-Link.com,2013-08-13 01:28:00,
2013-08-12 21:43:00,70.3,70.0,29.71,West,270,2.2,-999.0,99,-99.99,,,1.27,Acu-Link.com,2013-08-13 01:43:00,
2013-08-12 21:59:00,70.2,69.9,29.71,SSE,157,3.7,-999.0,99,-99.99,,,1.27,Acu-Link.com,2013-08-13 01:59:00,
2013-08-12 22:14:00,70.2,69.9,29.71,ESE,112,2.2,-999.0,99,-99.99,,,1.28,Acu-Link.com,2013-08-13 02:14:00,
2013-08-12 22:29:00,69.4,69.1,29.70,West,270,4.2,-999.0,99,-99.99,,,1.28,Acu-Link.com,2013-08-13 02:29:00,
2013-08-12 22:45:00,69.1,68.8,29.70,SSW,202,3.7,-999.0,99,-99.99,,,1.28,Acu-Link.com,2013-08-13 02:45:00,
2013-08-12 23:00:00,68.9,68.6,29.71,SW,225,3.2,-999.0,99,-99.99,,,1.28,Acu-Link.com,2013-08-13 03:00:00,
2013-08-12 23:15:00,68.9,68.6,29.70,WSW,247,3.7,-999.0,99,-99.99,,,1.28,Acu-Link.com,2013-08-13 03:15:00,
2013-08-12 23:30:00,68.9,68.6,29.71,WSW,247,2.7,-999.0,99,-99.99,,,1.28,Acu-Link.com,2013-08-13 03:30:00,
2013-08-12 23:46:00,69.1,68.8,29.71,SE,135,2.7,-999.0,99,-99.99,,,1.28,Acu-Link.com,2013-08-13 03:46:00,